Year,Month,Day,Hour,Minute,Value (Times are PST for temperature in C)
2018,07,28,00,00,17.60
2018,07,28,00,01,17.60
2018,07,28,00,02,17.60
2018,07,28,00,03,17.60
2018,07,28,00,04,17.60
2018,07,28,00,05,17.70
2018,07,28,00,06,17.70
2018,07,28,00,07,17.70
2018,07,28,00,08,17.70
2018,07,28,00,09,17.70
2018,07,28,00,10,17.70
2018,07,28,00,11,17.70
2018,07,28,00,12,17.70
2018,07,28,00,13,17.70
2018,07,28,00,14,17.70
2018,07,28,00,15,17.70
2018,07,28,00,16,17.70
2018,07,28,00,17,17.70
2018,07,28,00,18,17.70
2018,07,28,00,19,17.70
2018,07,28,00,20,17.70
2018,07,28,00,21,17.70
2018,07,28,00,22,17.70
2018,07,28,00,23,17.70
2018,07,28,00,24,17.70
2018,07,28,00,25,17.70
2018,07,28,00,26,17.70
2018,07,28,00,27,17.60
2018,07,28,00,28,17.70
2018,07,28,00,29,17.60
2018,07,28,00,30,17.60
2018,07,28,00,31,17.60
2018,07,28,00,32,17.60
2018,07,28,00,33,17.60
2018,07,28,00,34,17.60
2018,07,28,00,35,17.60
2018,07,28,00,36,17.60
2018,07,28,00,37,17.60
2018,07,28,00,38,17.60
2018,07,28,00,39,17.50
2018,07,28,00,40,17.50
2018,07,28,00,41,17.50
2018,07,28,00,42,17.50
2018,07,28,00,43,17.40
2018,07,28,00,44,17.40
2018,07,28,00,45,17.40
2018,07,28,00,46,17.40
2018,07,28,00,47,17.40
2018,07,28,00,48,17.30
2018,07,28,00,49,17.30
2018,07,28,00,50,17.30
2018,07,28,00,51,17.30
2018,07,28,00,52,17.30
2018,07,28,00,53,17.30
2018,07,28,00,54,17.30
2018,07,28,00,55,17.20
2018,07,28,00,56,17.20
2018,07,28,00,57,17.20
2018,07,28,00,58,17.20
2018,07,28,00,59,17.10
2018,07,28,01,00,17.10
2018,07,28,01,01,17.00
2018,07,28,01,02,17.00
2018,07,28,01,03,17.00
2018,07,28,01,04,16.90
2018,07,28,01,05,16.90
2018,07,28,01,06,16.90
2018,07,28,01,07,16.80
2018,07,28,01,08,16.80
2018,07,28,01,09,16.80
2018,07,28,01,10,16.80
2018,07,28,01,11,16.70
2018,07,28,01,12,16.70
2018,07,28,01,13,16.70
2018,07,28,01,14,16.60
2018,07,28,01,15,16.60
2018,07,28,01,16,16.60
2018,07,28,01,17,16.60
2018,07,28,01,18,16.50
2018,07,28,01,19,16.50
2018,07,28,01,20,16.50
2018,07,28,01,21,16.40
2018,07,28,01,22,16.40
2018,07,28,01,23,16.40
2018,07,28,01,24,16.30
2018,07,28,01,25,16.30
2018,07,28,01,26,16.30
2018,07,28,01,27,16.30
2018,07,28,01,28,16.20
2018,07,28,01,29,16.20
2018,07,28,01,30,16.20
2018,07,28,01,31,16.10
2018,07,28,01,32,16.10
2018,07,28,01,33,16.10
2018,07,28,01,34,16.10
2018,07,28,01,35,16.10
2018,07,28,01,36,16.00
2018,07,28,01,37,16.00
2018,07,28,01,38,16.00
2018,07,28,01,39,16.00
2018,07,28,01,40,15.90
2018,07,28,01,41,15.90
2018,07,28,01,42,15.90
2018,07,28,01,43,15.90
2018,07,28,01,44,15.90
2018,07,28,01,45,15.80
2018,07,28,01,46,15.80
2018,07,28,01,47,15.80
2018,07,28,01,48,15.80
2018,07,28,01,49,15.80
2018,07,28,01,50,15.80
2018,07,28,01,51,15.70
2018,07,28,01,52,15.70
2018,07,28,01,53,15.70
2018,07,28,01,54,15.70
2018,07,28,01,55,15.70
2018,07,28,01,56,15.60
2018,07,28,01,57,15.60
2018,07,28,01,58,15.60
2018,07,28,01,59,15.60
2018,07,28,02,00,15.60
2018,07,28,02,01,15.50
2018,07,28,02,02,15.50
2018,07,28,02,03,15.50
2018,07,28,02,04,15.50
2018,07,28,02,05,15.40
2018,07,28,02,06,15.40
2018,07,28,02,07,15.40
2018,07,28,02,08,15.40
2018,07,28,02,09,15.40
2018,07,28,02,10,15.30
2018,07,28,02,11,15.30
2018,07,28,02,12,15.30
2018,07,28,02,13,15.30
2018,07,28,02,14,15.30
2018,07,28,02,15,15.30
2018,07,28,02,16,15.20
2018,07,28,02,17,15.20
2018,07,28,02,18,15.20
2018,07,28,02,19,15.20
2018,07,28,02,20,15.20
2018,07,28,02,21,15.20
2018,07,28,02,22,15.20
2018,07,28,02,23,15.20
2018,07,28,02,24,15.20
2018,07,28,02,25,15.20
2018,07,28,02,26,15.20
2018,07,28,02,27,15.10
2018,07,28,02,28,15.10
2018,07,28,02,29,15.10
2018,07,28,02,30,15.10
2018,07,28,02,31,15.10
2018,07,28,02,32,15.10
2018,07,28,02,33,15.00
2018,07,28,02,34,15.00
2018,07,28,02,35,15.00
2018,07,28,02,36,14.90
2018,07,28,02,37,14.90
2018,07,28,02,38,14.90
2018,07,28,02,39,14.90
2018,07,28,02,40,14.80
2018,07,28,02,41,14.80
2018,07,28,02,42,14.80
2018,07,28,02,43,14.80
2018,07,28,02,44,14.80
2018,07,28,02,45,14.80
2018,07,28,02,46,14.80
2018,07,28,02,47,14.70
2018,07,28,02,48,14.70
2018,07,28,02,49,14.70
2018,07,28,02,50,14.70
2018,07,28,02,51,14.70
2018,07,28,02,52,14.70
2018,07,28,02,53,14.70
2018,07,28,02,54,14.70
2018,07,28,02,55,14.70
2018,07,28,02,56,14.70
2018,07,28,02,57,14.70
2018,07,28,02,58,14.70
2018,07,28,02,59,14.70
2018,07,28,03,00,14.70
2018,07,28,03,01,14.70
2018,07,28,03,02,14.70
2018,07,28,03,03,14.70
2018,07,28,03,04,14.70
2018,07,28,03,05,14.70
2018,07,28,03,06,14.80
2018,07,28,03,07,14.80
2018,07,28,03,08,14.80
2018,07,28,03,09,14.80
2018,07,28,03,10,14.80
2018,07,28,03,11,14.80
2018,07,28,03,12,14.80
2018,07,28,03,13,14.80
2018,07,28,03,14,14.80
2018,07,28,03,15,14.80
2018,07,28,03,16,14.80
2018,07,28,03,17,14.80
2018,07,28,03,18,14.80
2018,07,28,03,19,14.80
2018,07,28,03,20,14.80
2018,07,28,03,21,14.70
2018,07,28,03,22,14.70
2018,07,28,03,23,14.70
2018,07,28,03,24,14.70
2018,07,28,03,25,14.70
2018,07,28,03,26,14.70
2018,07,28,03,27,14.70
2018,07,28,03,28,14.70
2018,07,28,03,29,14.70
2018,07,28,03,30,14.70
2018,07,28,03,31,14.60
2018,07,28,03,32,14.60
2018,07,28,03,33,14.60
2018,07,28,03,34,14.60
2018,07,28,03,35,14.60
2018,07,28,03,36,14.60
2018,07,28,03,37,14.50
2018,07,28,03,38,14.50
2018,07,28,03,39,14.50
2018,07,28,03,40,14.50
2018,07,28,03,41,14.50
2018,07,28,03,42,14.50
2018,07,28,03,43,14.50
2018,07,28,03,44,14.40
2018,07,28,03,45,14.40
2018,07,28,03,46,14.40
2018,07,28,03,47,14.40
2018,07,28,03,48,14.40
2018,07,28,03,49,14.40
2018,07,28,03,50,14.40
2018,07,28,03,51,14.40
2018,07,28,03,52,14.30
2018,07,28,03,53,14.30
2018,07,28,03,54,14.30
2018,07,28,03,55,14.30
2018,07,28,03,56,14.30
2018,07,28,03,57,14.30
2018,07,28,03,58,14.30
2018,07,28,03,59,14.20
2018,07,28,04,00,14.20
2018,07,28,04,01,14.20
2018,07,28,04,02,14.20
2018,07,28,04,03,14.20
2018,07,28,04,04,14.10
2018,07,28,04,05,14.10
2018,07,28,04,06,14.10
2018,07,28,04,07,14.10
2018,07,28,04,08,14.00
2018,07,28,04,09,14.00
2018,07,28,04,10,14.00
2018,07,28,04,11,14.00
2018,07,28,04,12,14.00
2018,07,28,04,13,14.00
2018,07,28,04,14,13.90
2018,07,28,04,15,13.90
2018,07,28,04,16,13.90
2018,07,28,04,17,13.90
2018,07,28,04,18,13.90
2018,07,28,04,19,13.90
2018,07,28,04,20,13.90
2018,07,28,04,21,13.90
2018,07,28,04,22,13.90
2018,07,28,04,23,13.90
2018,07,28,04,24,13.90
2018,07,28,04,25,13.80
2018,07,28,04,26,13.80
2018,07,28,04,27,13.80
2018,07,28,04,28,13.80
2018,07,28,04,29,13.80
2018,07,28,04,30,13.80
2018,07,28,04,31,13.80
2018,07,28,04,32,13.80
2018,07,28,04,33,13.80
2018,07,28,04,34,13.80
2018,07,28,04,35,13.70
2018,07,28,04,36,13.70
2018,07,28,04,37,13.70
2018,07,28,04,38,13.70
2018,07,28,04,39,13.70
2018,07,28,04,40,13.70
2018,07,28,04,41,13.70
2018,07,28,04,42,13.70
2018,07,28,04,43,13.70
2018,07,28,04,44,13.70
2018,07,28,04,45,13.70
2018,07,28,04,46,13.70
2018,07,28,04,47,13.60
2018,07,28,04,48,13.60
2018,07,28,04,49,13.60
2018,07,28,04,50,13.60
2018,07,28,04,51,13.60
2018,07,28,04,52,13.50
2018,07,28,04,53,13.50
2018,07,28,04,54,13.50
2018,07,28,04,55,13.50
2018,07,28,04,56,13.50
2018,07,28,04,57,13.50
2018,07,28,04,58,13.50
2018,07,28,04,59,13.50
2018,07,28,05,00,13.50
2018,07,28,05,01,13.40
2018,07,28,05,02,13.40
2018,07,28,05,03,13.40
2018,07,28,05,04,13.40
2018,07,28,05,05,13.40
2018,07,28,05,06,13.40
2018,07,28,05,07,13.40
2018,07,28,05,08,13.40
2018,07,28,05,09,13.40
2018,07,28,05,10,13.40
2018,07,28,05,11,13.40
2018,07,28,05,12,13.30
2018,07,28,05,13,13.30
2018,07,28,05,14,13.30
2018,07,28,05,15,13.30
2018,07,28,05,16,13.30
2018,07,28,05,17,13.30
2018,07,28,05,18,13.30
2018,07,28,05,19,13.30
2018,07,28,05,20,13.30
2018,07,28,05,21,13.30
2018,07,28,05,22,13.30
2018,07,28,05,23,13.30
2018,07,28,05,24,13.30
2018,07,28,05,25,13.30
2018,07,28,05,26,13.30
2018,07,28,05,27,13.40
2018,07,28,05,28,13.40
2018,07,28,05,29,13.40
2018,07,28,05,30,13.40
2018,07,28,05,31,13.40
2018,07,28,05,32,13.30
2018,07,28,05,33,13.40
2018,07,28,05,34,13.40
2018,07,28,05,35,13.40
2018,07,28,05,36,13.40
2018,07,28,05,37,13.40
2018,07,28,05,38,13.40
2018,07,28,05,39,13.40
2018,07,28,05,40,13.40
2018,07,28,05,41,13.40
2018,07,28,05,42,13.40
2018,07,28,05,43,13.40
2018,07,28,05,44,13.40
2018,07,28,05,45,13.40
2018,07,28,05,46,13.40
2018,07,28,05,47,13.40
2018,07,28,05,48,13.40
2018,07,28,05,49,13.40
2018,07,28,05,50,13.40
2018,07,28,05,51,13.40
2018,07,28,05,52,13.40
2018,07,28,05,53,13.40
2018,07,28,05,54,13.40
2018,07,28,05,55,13.40
2018,07,28,05,56,13.40
2018,07,28,05,57,13.40
2018,07,28,05,58,13.40
2018,07,28,05,59,13.40
2018,07,28,06,00,13.40
2018,07,28,06,01,13.40
2018,07,28,06,02,13.50
2018,07,28,06,03,13.40
2018,07,28,06,04,13.50
2018,07,28,06,05,13.40
2018,07,28,06,06,13.40
2018,07,28,06,07,13.40
2018,07,28,06,08,13.40
2018,07,28,06,09,13.40
2018,07,28,06,10,13.40
2018,07,28,06,11,13.40
2018,07,28,06,12,13.40
2018,07,28,06,13,13.40
2018,07,28,06,14,13.30
2018,07,28,06,15,13.40
2018,07,28,06,16,13.40
2018,07,28,06,17,13.30
2018,07,28,06,18,13.30
2018,07,28,06,19,13.30
2018,07,28,06,20,13.30
2018,07,28,06,21,13.30
2018,07,28,06,22,13.30
2018,07,28,06,23,13.30
2018,07,28,06,24,13.30
2018,07,28,06,25,13.30
2018,07,28,06,26,13.30
2018,07,28,06,27,13.30
2018,07,28,06,28,13.30
2018,07,28,06,29,13.30
2018,07,28,06,30,13.30
2018,07,28,06,31,13.30
2018,07,28,06,32,13.30
2018,07,28,06,33,13.30
2018,07,28,06,34,13.30
2018,07,28,06,35,13.20
2018,07,28,06,36,13.20
2018,07,28,06,37,13.20
2018,07,28,06,38,13.30
2018,07,28,06,39,13.30
2018,07,28,06,40,13.30
2018,07,28,06,41,13.30
2018,07,28,06,42,13.30
2018,07,28,06,43,13.20
2018,07,28,06,44,13.30
2018,07,28,06,45,13.20
2018,07,28,06,46,13.30
2018,07,28,06,47,13.30
2018,07,28,06,48,13.30
2018,07,28,06,49,13.30
2018,07,28,06,50,13.30
2018,07,28,06,51,13.30
2018,07,28,06,52,13.30
2018,07,28,06,53,13.40
2018,07,28,06,54,13.40
2018,07,28,06,55,13.40
2018,07,28,06,56,13.40
2018,07,28,06,57,13.40
2018,07,28,06,58,13.50
2018,07,28,06,59,13.50
2018,07,28,07,00,13.50
2018,07,28,07,01,13.50
2018,07,28,07,02,13.60
2018,07,28,07,03,13.60
2018,07,28,07,04,13.60
2018,07,28,07,05,13.60
2018,07,28,07,06,13.60
2018,07,28,07,07,13.60
2018,07,28,07,08,13.70
2018,07,28,07,09,13.70
2018,07,28,07,10,13.70
2018,07,28,07,11,13.70
2018,07,28,07,12,13.70
2018,07,28,07,13,13.70
2018,07,28,07,14,13.70
2018,07,28,07,15,13.80
2018,07,28,07,16,13.80
2018,07,28,07,17,13.80
2018,07,28,07,18,13.80
2018,07,28,07,19,13.90
2018,07,28,07,20,13.90
2018,07,28,07,21,13.90
2018,07,28,07,22,13.90
2018,07,28,07,23,14.00
2018,07,28,07,24,14.00
2018,07,28,07,25,14.00
2018,07,28,07,26,14.10
2018,07,28,07,27,14.10
2018,07,28,07,28,14.10
2018,07,28,07,29,14.10
2018,07,28,07,30,14.20
2018,07,28,07,31,14.20
2018,07,28,07,32,14.20
2018,07,28,07,33,14.20
2018,07,28,07,34,14.20
2018,07,28,07,35,14.20
2018,07,28,07,36,14.20
2018,07,28,07,37,14.30
2018,07,28,07,38,14.30
2018,07,28,07,39,14.30
2018,07,28,07,40,14.30
2018,07,28,07,41,14.30
2018,07,28,07,42,14.30
2018,07,28,07,43,14.30
2018,07,28,07,44,14.30
2018,07,28,07,45,14.30
2018,07,28,07,46,14.30
2018,07,28,07,47,14.40
2018,07,28,07,48,14.40
2018,07,28,07,49,14.40
2018,07,28,07,50,14.40
2018,07,28,07,51,14.40
2018,07,28,07,52,14.40
2018,07,28,07,53,14.40
2018,07,28,07,54,14.40
2018,07,28,07,55,14.40
2018,07,28,07,56,14.40
2018,07,28,07,57,14.40
2018,07,28,07,58,14.50
2018,07,28,07,59,14.50
2018,07,28,08,00,14.50
2018,07,28,08,01,14.50
2018,07,28,08,02,14.50
2018,07,28,08,03,14.50
2018,07,28,08,04,14.50
2018,07,28,08,05,14.50
2018,07,28,08,06,14.50
2018,07,28,08,07,14.60
2018,07,28,08,08,14.60
2018,07,28,08,09,14.60
2018,07,28,08,10,14.60
2018,07,28,08,11,14.60
2018,07,28,08,12,14.60
2018,07,28,08,13,14.60
2018,07,28,08,14,14.60
2018,07,28,08,15,14.60
2018,07,28,08,16,14.70
2018,07,28,08,17,14.70
2018,07,28,08,18,14.70
2018,07,28,08,19,14.70
2018,07,28,08,20,14.70
2018,07,28,08,21,14.70
2018,07,28,08,22,14.80
2018,07,28,08,23,14.80
2018,07,28,08,24,14.80
2018,07,28,08,25,14.80
2018,07,28,08,26,14.80
2018,07,28,08,27,14.80
2018,07,28,08,28,14.80
2018,07,28,08,29,14.80
2018,07,28,08,30,14.80
2018,07,28,08,31,14.90
2018,07,28,08,32,14.90
2018,07,28,08,33,14.90
2018,07,28,08,34,14.90
2018,07,28,08,35,14.90
2018,07,28,08,36,15.00
2018,07,28,08,37,15.00
2018,07,28,08,38,15.10
2018,07,28,08,39,15.10
2018,07,28,08,40,15.10
2018,07,28,08,41,15.20
2018,07,28,08,42,15.20
2018,07,28,08,43,15.20
2018,07,28,08,44,15.20
2018,07,28,08,45,15.20
2018,07,28,08,46,15.30
2018,07,28,08,47,15.30
2018,07,28,08,48,15.30
2018,07,28,08,49,15.30
2018,07,28,08,50,15.40
2018,07,28,08,51,15.40
2018,07,28,08,52,15.40
2018,07,28,08,53,15.50
2018,07,28,08,54,15.50
2018,07,28,08,55,15.50
2018,07,28,08,56,15.60
2018,07,28,08,57,15.60
2018,07,28,08,58,15.70
2018,07,28,08,59,15.70
2018,07,28,09,00,15.70
2018,07,28,09,01,15.80
2018,07,28,09,02,15.80
2018,07,28,09,03,15.80
2018,07,28,09,04,15.90
2018,07,28,09,05,15.90
2018,07,28,09,06,16.00
2018,07,28,09,07,16.10
2018,07,28,09,08,16.10
2018,07,28,09,09,16.20
2018,07,28,09,10,16.20
2018,07,28,09,11,16.30
2018,07,28,09,12,16.40
2018,07,28,09,13,16.50
2018,07,28,09,14,16.50
2018,07,28,09,15,16.60
2018,07,28,09,16,16.70
2018,07,28,09,17,16.70
2018,07,28,09,18,16.80
2018,07,28,09,19,16.80
2018,07,28,09,20,16.90
2018,07,28,09,21,16.90
2018,07,28,09,22,16.90
2018,07,28,09,23,17.00
2018,07,28,09,24,17.00
2018,07,28,09,25,17.00
2018,07,28,09,26,17.00
2018,07,28,09,27,17.00
2018,07,28,09,28,17.00
2018,07,28,09,29,17.00
2018,07,28,09,30,17.00
2018,07,28,09,31,17.00
2018,07,28,09,32,17.00
2018,07,28,09,33,17.00
2018,07,28,09,34,17.00
2018,07,28,09,35,16.90
2018,07,28,09,36,17.00
2018,07,28,09,37,17.00
2018,07,28,09,38,17.00
2018,07,28,09,39,17.00
2018,07,28,09,40,17.00
2018,07,28,09,41,17.00
2018,07,28,09,42,17.10
2018,07,28,09,43,17.10
2018,07,28,09,44,17.10
2018,07,28,09,45,17.20
2018,07,28,09,46,17.20
2018,07,28,09,47,17.20
2018,07,28,09,48,17.30
2018,07,28,09,49,17.30
2018,07,28,09,50,17.40
2018,07,28,09,51,17.50
2018,07,28,09,52,17.50
2018,07,28,09,53,17.60
2018,07,28,09,54,17.60
2018,07,28,09,55,17.70
2018,07,28,09,56,17.70
2018,07,28,09,57,17.70
2018,07,28,09,58,17.80
2018,07,28,09,59,17.80
2018,07,28,10,00,17.80
2018,07,28,10,01,17.90
2018,07,28,10,02,17.90
2018,07,28,10,03,18.00
2018,07,28,10,04,18.00
2018,07,28,10,05,18.10
2018,07,28,10,06,18.20
2018,07,28,10,07,18.20
2018,07,28,10,08,18.30
2018,07,28,10,09,18.40
2018,07,28,10,10,18.40
2018,07,28,10,11,18.50
2018,07,28,10,12,18.50
2018,07,28,10,13,18.60
2018,07,28,10,14,18.70
2018,07,28,10,15,18.80
2018,07,28,10,16,18.80
2018,07,28,10,17,18.90
2018,07,28,10,18,19.00
2018,07,28,10,19,19.00
2018,07,28,10,20,19.10
2018,07,28,10,21,19.20
2018,07,28,10,22,19.30
2018,07,28,10,23,19.30
2018,07,28,10,24,19.40
2018,07,28,10,25,19.40
2018,07,28,10,26,19.50
2018,07,28,10,27,19.60
2018,07,28,10,28,19.70
2018,07,28,10,29,19.70
2018,07,28,10,30,19.80
2018,07,28,10,31,19.90
2018,07,28,10,32,20.00
2018,07,28,10,33,20.10
2018,07,28,10,34,20.10
2018,07,28,10,35,20.20
2018,07,28,10,36,20.20
2018,07,28,10,37,20.30
2018,07,28,10,38,20.30
2018,07,28,10,39,20.30
2018,07,28,10,40,20.30
2018,07,28,10,41,20.30
2018,07,28,10,42,20.30
2018,07,28,10,43,20.30
2018,07,28,10,44,20.30
2018,07,28,10,45,20.30
2018,07,28,10,46,20.30
2018,07,28,10,47,20.30
2018,07,28,10,48,20.30
2018,07,28,10,49,20.30
2018,07,28,10,50,20.20
2018,07,28,10,51,20.20
2018,07,28,10,52,20.20
2018,07,28,10,53,20.20
2018,07,28,10,54,20.20
2018,07,28,10,55,20.20
2018,07,28,10,56,20.20
2018,07,28,10,57,20.20
2018,07,28,10,58,20.20
2018,07,28,10,59,20.20
2018,07,28,11,00,20.20
2018,07,28,11,01,20.20
2018,07,28,11,02,20.20
2018,07,28,11,03,20.30
2018,07,28,11,04,20.30
2018,07,28,11,05,20.30
2018,07,28,11,06,20.20
2018,07,28,11,07,20.30
2018,07,28,11,08,20.30
2018,07,28,11,09,20.30
2018,07,28,11,10,20.40
2018,07,28,11,11,20.40
2018,07,28,11,12,20.50
2018,07,28,11,13,20.60
2018,07,28,11,14,20.60
2018,07,28,11,15,20.70
2018,07,28,11,16,20.70
2018,07,28,11,17,20.80
2018,07,28,11,18,20.80
2018,07,28,11,19,20.80
2018,07,28,11,20,20.80
2018,07,28,11,21,20.80
2018,07,28,11,22,20.80
2018,07,28,11,23,20.90
2018,07,28,11,24,20.90
2018,07,28,11,25,21.00
2018,07,28,11,26,21.10
2018,07,28,11,27,21.10
2018,07,28,11,28,21.20
2018,07,28,11,29,21.20
2018,07,28,11,30,21.20
2018,07,28,11,31,21.20
2018,07,28,11,32,21.30
2018,07,28,11,33,21.30
2018,07,28,11,34,21.30
2018,07,28,11,35,21.40
2018,07,28,11,36,21.40
2018,07,28,11,37,21.50
2018,07,28,11,38,21.50
2018,07,28,11,39,21.60
2018,07,28,11,40,21.60
2018,07,28,11,41,21.70
2018,07,28,11,42,21.80
2018,07,28,11,43,21.90
2018,07,28,11,44,22.00
2018,07,28,11,45,22.00
2018,07,28,11,46,22.10
2018,07,28,11,47,22.10
2018,07,28,11,48,22.20
2018,07,28,11,49,22.20
2018,07,28,11,50,22.20
2018,07,28,11,51,22.30
2018,07,28,11,52,22.30
2018,07,28,11,53,22.40
2018,07,28,11,54,22.40
2018,07,28,11,55,22.40
2018,07,28,11,56,22.50
2018,07,28,11,57,22.50
2018,07,28,11,58,22.60
2018,07,28,11,59,22.60
2018,07,28,12,00,22.70
2018,07,28,12,01,22.70
2018,07,28,12,02,22.70
2018,07,28,12,03,22.80
2018,07,28,12,04,22.90
2018,07,28,12,05,23.00
2018,07,28,12,06,23.10
2018,07,28,12,07,23.10
2018,07,28,12,08,23.10
2018,07,28,12,09,23.10
2018,07,28,12,10,23.20
2018,07,28,12,11,23.20
2018,07,28,12,12,23.30
2018,07,28,12,13,23.40
2018,07,28,12,14,23.40
2018,07,28,12,15,23.50
2018,07,28,12,16,23.60
2018,07,28,12,17,23.60
2018,07,28,12,18,23.60
2018,07,28,12,19,23.70
2018,07,28,12,20,23.70
2018,07,28,12,21,23.80
2018,07,28,12,22,23.80
2018,07,28,12,23,23.80
2018,07,28,12,24,23.90
2018,07,28,12,25,23.90
2018,07,28,12,26,24.00
2018,07,28,12,27,23.90
2018,07,28,12,28,23.90
2018,07,28,12,29,23.80
2018,07,28,12,30,23.80
2018,07,28,12,31,23.80
2018,07,28,12,32,23.90
2018,07,28,12,33,23.90
2018,07,28,12,34,23.90
2018,07,28,12,35,23.90
2018,07,28,12,36,23.90
2018,07,28,12,37,23.90
2018,07,28,12,38,23.90
2018,07,28,12,39,23.90
2018,07,28,12,40,23.80
2018,07,28,12,41,23.80
2018,07,28,12,42,23.80
2018,07,28,12,43,23.80
2018,07,28,12,44,23.80
2018,07,28,12,45,23.80
2018,07,28,12,46,23.80
2018,07,28,12,47,23.90
2018,07,28,12,48,23.90
2018,07,28,12,49,24.00
2018,07,28,12,50,24.00
2018,07,28,12,51,24.00
2018,07,28,12,52,24.00
2018,07,28,12,53,24.10
2018,07,28,12,54,24.10
2018,07,28,12,55,24.20
2018,07,28,12,56,24.30
2018,07,28,12,57,24.30
2018,07,28,12,58,24.30
2018,07,28,12,59,24.20
2018,07,28,13,00,24.20
2018,07,28,13,01,24.10
2018,07,28,13,02,24.00
2018,07,28,13,03,24.00
2018,07,28,13,04,23.90
2018,07,28,13,05,23.80
2018,07,28,13,06,23.70
2018,07,28,13,07,23.70
2018,07,28,13,08,23.60
2018,07,28,13,09,23.60
2018,07,28,13,10,23.70
2018,07,28,13,11,23.70
2018,07,28,13,12,23.70
2018,07,28,13,13,23.70
2018,07,28,13,14,23.70
2018,07,28,13,15,23.70
2018,07,28,13,16,23.60
2018,07,28,13,17,23.60
2018,07,28,13,18,23.70
2018,07,28,13,19,23.80
2018,07,28,13,20,23.80
2018,07,28,13,21,23.90
2018,07,28,13,22,24.00
2018,07,28,13,23,24.00
2018,07,28,13,24,24.10
2018,07,28,13,25,24.10
2018,07,28,13,26,24.10
2018,07,28,13,27,24.20
2018,07,28,13,28,24.30
2018,07,28,13,29,24.40
2018,07,28,13,30,24.50
2018,07,28,13,31,24.60
2018,07,28,13,32,24.80
2018,07,28,13,33,24.90
2018,07,28,13,34,25.00
2018,07,28,13,35,25.10
2018,07,28,13,36,25.20
2018,07,28,13,37,25.20
2018,07,28,13,38,25.20
2018,07,28,13,39,25.20
2018,07,28,13,40,25.20
2018,07,28,13,41,25.30
2018,07,28,13,42,25.30
2018,07,28,13,43,25.30
2018,07,28,13,44,25.30
2018,07,28,13,45,25.40
2018,07,28,13,46,25.40
2018,07,28,13,47,25.50
2018,07,28,13,48,25.50
2018,07,28,13,49,25.60
2018,07,28,13,50,25.60
2018,07,28,13,51,25.70
2018,07,28,13,52,25.80
2018,07,28,13,53,25.80
2018,07,28,13,54,25.70
2018,07,28,13,55,25.60
2018,07,28,13,56,25.60
2018,07,28,13,57,25.60
2018,07,28,13,58,25.60
2018,07,28,13,59,25.60
2018,07,28,14,00,25.60
2018,07,28,14,01,25.60
2018,07,28,14,02,25.70
2018,07,28,14,03,25.70
2018,07,28,14,04,25.70
2018,07,28,14,05,25.80
2018,07,28,14,06,25.80
2018,07,28,14,07,25.90
2018,07,28,14,08,26.00
2018,07,28,14,09,26.10
2018,07,28,14,10,26.10
2018,07,28,14,11,26.20
2018,07,28,14,12,26.20
2018,07,28,14,13,26.20
2018,07,28,14,14,26.30
2018,07,28,14,15,26.30
2018,07,28,14,16,26.40
2018,07,28,14,17,26.40
2018,07,28,14,18,26.50
2018,07,28,14,19,26.50
2018,07,28,14,20,26.60
2018,07,28,14,21,26.70
2018,07,28,14,22,26.70
2018,07,28,14,23,26.60
2018,07,28,14,24,26.60
2018,07,28,14,25,26.50
2018,07,28,14,26,26.40
2018,07,28,14,27,26.50
2018,07,28,14,28,26.50
2018,07,28,14,29,26.50
2018,07,28,14,30,26.60
2018,07,28,14,31,26.60
2018,07,28,14,32,26.50
2018,07,28,14,33,26.50
2018,07,28,14,34,26.40
2018,07,28,14,35,26.40
2018,07,28,14,36,26.40
2018,07,28,14,37,26.40
2018,07,28,14,38,26.30
2018,07,28,14,39,26.30
2018,07,28,14,40,26.30
2018,07,28,14,41,26.30
2018,07,28,14,42,26.20
2018,07,28,14,43,26.30
2018,07,28,14,44,26.30
2018,07,28,14,45,26.20
2018,07,28,14,46,26.20
2018,07,28,14,47,26.20
2018,07,28,14,48,26.10
2018,07,28,14,49,26.10
2018,07,28,14,50,26.00
2018,07,28,14,51,25.90
2018,07,28,14,52,25.80
2018,07,28,14,53,25.70
2018,07,28,14,54,25.50
2018,07,28,14,55,25.40
2018,07,28,14,56,25.30
2018,07,28,14,57,25.20
2018,07,28,14,58,25.20
2018,07,28,14,59,25.20
2018,07,28,15,00,25.10
2018,07,28,15,01,25.10
2018,07,28,15,02,25.10
2018,07,28,15,03,25.10
2018,07,28,15,04,25.10
2018,07,28,15,05,25.00
2018,07,28,15,06,25.00
2018,07,28,15,07,25.10
2018,07,28,15,08,25.10
2018,07,28,15,09,25.10
2018,07,28,15,10,25.10
2018,07,28,15,11,25.20
2018,07,28,15,12,25.20
2018,07,28,15,13,25.20
2018,07,28,15,14,25.20
2018,07,28,15,15,25.20
2018,07,28,15,16,25.20
2018,07,28,15,17,25.20
2018,07,28,15,18,25.20
2018,07,28,15,19,25.20
2018,07,28,15,20,25.30
2018,07,28,15,21,25.30
2018,07,28,15,22,25.30
2018,07,28,15,23,25.30
2018,07,28,15,24,25.30
2018,07,28,15,25,25.30
2018,07,28,15,26,25.20
2018,07,28,15,27,25.10
2018,07,28,15,28,25.10
2018,07,28,15,29,25.00
2018,07,28,15,30,25.00
2018,07,28,15,31,24.90
2018,07,28,15,32,24.80
2018,07,28,15,33,24.80
2018,07,28,15,34,24.80
2018,07,28,15,35,24.80
2018,07,28,15,36,24.80
2018,07,28,15,37,24.80
2018,07,28,15,38,24.90
2018,07,28,15,39,24.90
2018,07,28,15,40,25.00
2018,07,28,15,41,25.00
2018,07,28,15,42,25.00
2018,07,28,15,43,25.00
2018,07,28,15,44,25.00
2018,07,28,15,45,25.00
2018,07,28,15,46,25.10
2018,07,28,15,47,25.00
2018,07,28,15,48,25.00
2018,07,28,15,49,24.90
2018,07,28,15,50,24.90
2018,07,28,15,51,24.90
2018,07,28,15,52,24.90
2018,07,28,15,53,25.00
2018,07,28,15,54,25.10
2018,07,28,15,55,25.10
2018,07,28,15,56,25.20
2018,07,28,15,57,25.20
2018,07,28,15,58,25.30
2018,07,28,15,59,25.30
2018,07,28,16,00,25.30
2018,07,28,16,01,25.30
2018,07,28,16,02,25.30
2018,07,28,16,03,25.30
2018,07,28,16,04,25.20
2018,07,28,16,05,25.20
2018,07,28,16,06,25.10
2018,07,28,16,07,25.00
2018,07,28,16,08,25.00
2018,07,28,16,09,25.00
2018,07,28,16,10,25.00
2018,07,28,16,11,25.10
2018,07,28,16,12,25.00
2018,07,28,16,13,25.00
2018,07,28,16,14,24.90
2018,07,28,16,15,24.90
2018,07,28,16,16,24.90
2018,07,28,16,17,25.00
2018,07,28,16,18,25.00
2018,07,28,16,19,25.00
2018,07,28,16,20,25.00
2018,07,28,16,21,25.10
2018,07,28,16,22,25.10
2018,07,28,16,23,25.10
2018,07,28,16,24,25.10
2018,07,28,16,25,25.20
2018,07,28,16,26,25.20
2018,07,28,16,27,25.20
2018,07,28,16,28,25.30
2018,07,28,16,29,25.40
2018,07,28,16,30,25.50
2018,07,28,16,31,25.50
2018,07,28,16,32,25.60
2018,07,28,16,33,25.70
2018,07,28,16,34,25.70
2018,07,28,16,35,25.80
2018,07,28,16,36,25.80
2018,07,28,16,37,25.80
2018,07,28,16,38,25.80
2018,07,28,16,39,25.80
2018,07,28,16,40,25.80
2018,07,28,16,41,25.70
2018,07,28,16,42,25.70
2018,07,28,16,43,25.70
2018,07,28,16,44,25.70
2018,07,28,16,45,25.70
2018,07,28,16,46,25.70
2018,07,28,16,47,25.80
2018,07,28,16,48,25.80
2018,07,28,16,49,25.90
2018,07,28,16,50,25.90
2018,07,28,16,51,26.00
2018,07,28,16,52,26.10
2018,07,28,16,53,26.10
2018,07,28,16,54,26.20
2018,07,28,16,55,26.20
2018,07,28,16,56,26.20
2018,07,28,16,57,26.20
2018,07,28,16,58,26.20
2018,07,28,16,59,26.30
2018,07,28,17,00,26.20
2018,07,28,17,01,26.30
2018,07,28,17,02,26.30
2018,07,28,17,03,26.20
2018,07,28,17,04,26.30
2018,07,28,17,05,26.20
2018,07,28,17,06,26.20
2018,07,28,17,07,26.20
2018,07,28,17,08,26.20
2018,07,28,17,09,26.20
2018,07,28,17,10,26.20
2018,07,28,17,11,26.20
2018,07,28,17,12,26.20
2018,07,28,17,13,26.20
2018,07,28,17,14,26.30
2018,07,28,17,15,26.30
2018,07,28,17,16,26.30
2018,07,28,17,17,26.30
2018,07,28,17,18,26.40
2018,07,28,17,19,26.40